sat.trackr.live / text

‹ back to catalog

STARLINK-31393

NORAD 59252 · 2024-049X

PAYLOAD ACTIVE UNKNOWN

§ Identity

Operator
Country
US
Launch date
2024-03-16
Launch site
AFETR
Launch vehicle
Mass (kg)
RCS (m²)

Purposes: comms

External: N2YO · Heavens-Above · Gunter

§ Orbital elements

Epoch: 2026-09-20T22:18:51.743520Z

Period
94.27 min
Inclination
43.0027°
Eccentricity
0.0001142
Mean motion
15.27572059 rev/d
Perigee alt
482.3 km
Apogee alt
483.9 km
Semi-major
6,861.2 km
B*
-1.0515e-5
RAAN
106.3619°
Arg perigee
274.1827°
Mean anomaly
85.8894°
Rev number
14,243

§ Raw data

STARLINK-313931 59252U 24049X   26263.92976555 -.00000551  00000+0 -10515-4 0  99972 59252  43.0027 106.3619 0001142 274.1827  85.8894 15.27572059142435

JSON: /api/v1/satellites/59252 · /tle

For live sub-satellite position, see the globe view (requires WebGL).

§ Visibility from observer

Set your observer location to see the next 7 days of passes ≥ 10°. The values pass through the URL so the page stays shareable.

No JS? Fill the form by hand. The geolocation button needs JavaScript.